| time (UTC) | temp C | wind direction | speed KPH | gust KPH | rain 1hr cm | rain 24hr cm | rain mn cm | humidity % | barometer mb |
| 20260508100007 | 6 | 145 | 0.0 | 0.0 | 0.00 | 0.00 | 0.00 | 42 | 1007.2 |
| 20260508094507 | 6 | 145 | 0.0 | 0.0 | 0.00 | 0.00 | 0.00 | 43 | 1007.2 |
| 20260508093020 | 7 | 145 | 0.0 | 0.0 | 0.00 | 0.00 | 0.00 | 43 | 1007.2 |
| 20260508091503 | 7 | 145 | 0.0 | 0.0 | 0.00 | 0.00 | 0.00 | 43 | 1007.3 |
| 20260508090006 | 7 | 145 | 0.0 | 0.0 | 0.00 | 0.00 | 0.00 | 44 | 1007.4 |
| 20260508084502 | 7 | 145 | 0.0 | 0.0 | 0.00 | 0.00 | 0.00 | 47 | 1007.5 |
| 20260508083001 | 7 | 145 | 0.0 | 0.0 | 0.00 | 0.00 | 0.00 | 46 | 1007.5 |
| 20260508081615 | 7 | 145 | 0.0 | 0.0 | 0.00 | 0.00 | 0.00 | 47 | 1007.6 |
| 20260508080104 | 7 | 145 | 0.0 | 0.0 | 0.00 | 0.00 | 0.00 | 49 | 1007.4 |
| 20260508074557 | 7 | 145 | 0.0 | 0.0 | 0.00 | 0.00 | 0.00 | 48 | 1007.5 |
| 20260508073059 | 7 | 145 | 0.0 | 0.0 | 0.00 | 0.00 | 0.00 | 48 | 1007.6 |
| 20260508071556 | 7 | 145 | 0.0 | 0.0 | 0.00 | 0.00 | 0.00 | 47 | 1007.5 |
| 20260508070056 | 7 | 145 | 0.0 | 0.0 | 0.00 | 0.00 | 0.00 | 48 | 1007.9 |
| 20260508064555 | 8 | 145 | 0.0 | 0.0 | 0.00 | 0.00 | 0.00 | 48 | 1008.0 |
| 20260508063056 | 8 | 145 | 0.0 | 0.0 | 0.00 | 0.00 | 0.00 | 49 | 1007.8 |
| 20260508061605 | 8 | 145 | 0.0 | 0.0 | 0.00 | 0.00 | 0.00 | 50 | 1007.3 |
| 20260508060055 | 8 | 145 | 0.0 | 0.0 | 0.00 | 0.00 | 0.00 | 50 | 1008.3 |
| 20260508054630 | 8 | 175 | 0.0 | 0.0 | 0.00 | 0.00 | 0.00 | 50 | 1008.4 |
| 20260508053053 | 8 | 175 | 0.0 | 0.0 | 0.00 | 0.00 | 0.00 | 50 | 1008.5 |
| 20260508051552 | 9 | 175 | 0.0 | 0.0 | 0.00 | 0.00 | 0.00 | 49 | 1008.5 |
| 20260508050053 | 9 | 175 | 0.0 | 0.0 | 0.00 | 0.00 | 0.00 | 49 | 1008.4 |
| 20260508044600 | 9 | 175 | 0.0 | 0.0 | 0.00 | 0.00 | 0.00 | 48 | 1008.4 |
| 20260508043051 | 10 | 175 | 0.0 | 0.0 | 0.00 | 0.00 | 0.00 | 48 | 1008.3 |
| 20260508041557 | 10 | 175 | 0.0 | 0.0 | 0.00 | 0.00 | 0.00 | 47 | 1008.0 |
| 20260508040055 | 10 | 175 | 0.0 | 0.0 | 0.00 | 0.00 | 0.00 | 46 | 1008.8 |
| 20260508034600 | 11 | 175 | 0.0 | 0.0 | 0.00 | 0.00 | 0.00 | 43 | 1008.3 |
| 20260508033050 | 11 | 175 | 0.0 | 0.0 | 0.00 | 0.00 | 0.00 | 40 | 1008.2 |
| 20260508031558 | 12 | 192 | 0.0 | 0.0 | 0.00 | 0.00 | 0.00 | 37 | 1007.5 |
| 20260508030106 | 13 | 192 | 0.0 | 0.0 | 0.00 | 0.00 | 0.00 | 35 | 1009.2 |
| 20260508024548 | 13 | 192 | 0.0 | 0.0 | 0.00 | 0.00 | 0.00 | 33 | 1009.3 |
| 20260508023048 | 14 | 192 | 0.0 | 0.0 | 0.00 | 0.00 | 0.00 | 1008.1 | |
| 20260508021547 | 14 | 76 | 0.0 | 0.0 | 0.00 | 0.00 | 0.00 | 30 | 1009.2 |
| 20260508020046 | 15 | 234 | 0.0 | 0.0 | 0.00 | 0.00 | 0.00 | 28 | 1010.2 |
| 20260508014546 | 15 | 232 | 0.0 | 0.0 | 0.00 | 0.00 | 0.00 | 30 | 1009.6 |
| 20260508013045 | 15 | 199 | 1.6 | 0.0 | 0.00 | 0.00 | 0.00 | 29 | 1009.6 |
| 20260508011553 | 16 | 145 | 1.6 | 0.0 | 0.00 | 0.00 | 0.00 | 30 | 1009.0 |
| 20260508010045 | 17 | 168 | 1.6 | 0.0 | 0.00 | 0.00 | 0.00 | 27 | 1008.6 |
| 20260508004543 | 18 | 147 | 1.6 | 0.0 | 0.00 | 0.00 | 0.00 | 26 | 1008.0 |
| 20260508003049 | 18 | 295 | 1.6 | 0.0 | 0.00 | 0.00 | 0.00 | 27 | 1008.1 |
| 20260508001543 | 18 | 133 | 1.6 | 0.0 | 0.00 | 0.00 | 0.00 | 26 | 1008.6 |
| 20260508000040 | 18 | 138 | 3.2 | 0.0 | 0.00 | 0.00 | 0.00 | 30 | 1008.0 |
| 20260507234541 | 18 | 200 | 3.2 | 0.0 | 0.00 | 0.00 | 0.00 | 26 | 1008.0 |
| 20260507233041 | 19 | 133 | 1.6 | 0.0 | 0.00 | 0.00 | 0.00 | 26 | 1007.6 |
| 20260507231550 | 19 | 329 | 1.6 | 0.0 | 0.00 | 0.00 | 0.00 | 27 | 1007.4 |
| 20260507230040 | 19 | 217 | 1.6 | 0.0 | 0.00 | 0.00 | 0.00 | 27 | 1007.3 |
| 20260507224551 | 18 | 280 | 1.6 | 0.0 | 0.00 | 0.00 | 0.00 | 24 | 1007.7 |
| 20260507223043 | 18 | 210 | 3.2 | 0.0 | 0.00 | 0.00 | 0.00 | 26 | 1007.7 |
| 20260507221539 | 18 | 144 | 3.2 | 0.0 | 0.00 | 0.00 | 0.00 | 24 | 1008.4 |
| 20260507220037 | 19 | 240 | 1.6 | 0.0 | 0.00 | 0.00 | 0.00 | 24 | 1007.8 |
| 20260507214539 | 19 | 288 | 1.6 | 0.0 | 0.00 | 0.00 | 0.00 | 22 | 1007.7 |
| 20260507213036 | 19 | 237 | 1.6 | 0.0 | 0.00 | 0.00 | 0.00 | 24 | 1007.8 |
| 20260507211531 | 20 | 268 | 1.6 | 0.0 | 0.00 | 0.00 | 0.00 | 23 | 1007.9 |
| 20260507210056 | 19 | 205 | 0.0 | 0.0 | 0.00 | 0.00 | 0.00 | 24 | 1007.9 |
| 20260507204530 | 19 | 186 | 1.6 | 0.0 | 0.00 | 0.00 | 0.00 | 27 | 1007.8 |
| 20260507203029 | 19 | 282 | 1.6 | 0.0 | 0.00 | 0.00 | 0.00 | 17 | 1008.2 |
| 20260507201534 | 20 | 1 | 0.0 | 0.0 | 0.00 | 0.00 | 0.00 | 18 | 1008.4 |
| 20260507200047 | 20 | 251 | 1.6 | 0.0 | 0.00 | 0.00 | 0.00 | 18 | 1008.4 |
| 20260507194526 | 19 | 350 | 1.6 | 0.0 | 0.00 | 0.00 | 0.00 | 20 | 1008.2 |
| 20260507193040 | 18 | 332 | 1.6 | 0.0 | 0.00 | 0.00 | 0.00 | 21 | 1008.9 |
| 20260507191527 | 18 | 79 | 1.6 | 0.0 | 0.00 | 0.00 | 0.00 | 21 | 1009.1 |
| 20260507190031 | 18 | 239 | 1.6 | 0.0 | 0.00 | 0.00 | 0.00 | 22 | 1009.1 |
| 20260507184515 | 17 | 308 | 0.0 | 0.0 | 0.00 | 0.00 | 0.00 | 22 | 1009.3 |
| 20260507183018 | 17 | 332 | 1.6 | 0.0 | 0.00 | 0.00 | 0.00 | 23 | 1009.8 |
| 20260507181507 | 16 | 316 | 0.0 | 0.0 | 0.00 | 0.00 | 0.00 | 25 | 1009.9 |
| 20260507180004 | 16 | 83 | 1.6 | 0.0 | 0.00 | 0.00 | 0.00 | 24 | 1009.9 |
| 20260507174608 | 16 | 62 | 0.0 | 0.0 | 0.00 | 0.00 | 0.00 | 26 | 1010.0 |
| 20260507173133 | 16 | 66 | 0.0 | 0.0 | 0.00 | 0.00 | 0.00 | 26 | 1010.5 |
| 20260507171601 | 15 | 247 | 0.0 | 0.0 | 0.00 | 0.00 | 0.00 | 27 | 1010.5 |
| 20260507170055 | 15 | 320 | 0.0 | 0.0 | 0.00 | 0.00 | 0.00 | 27 | 1009.9 |
| 20260507164600 | 15 | 336 | 0.0 | 0.0 | 0.00 | 0.00 | 0.00 | 28 | 1009.8 |
| 20260507163051 | 14 | 354 | 0.0 | 0.0 | 0.00 | 0.00 | 0.00 | 28 | 1010.5 |
| 20260507161559 | 13 | 40 | 0.0 | 0.0 | 0.00 | 0.00 | 0.00 | 27 | 1010.6 |
| 20260507160101 | 12 | 41 | 0.0 | 0.0 | 0.00 | 0.00 | 0.00 | 29 | 1010.7 |
| 20260507154541 | 11 | 48 | 0.0 | 0.0 | 0.00 | 0.00 | 0.00 | 31 | 1011.0 |
| 20260507153036 | 10 | 49 | 0.0 | 0.0 | 0.00 | 0.00 | 0.00 | 40 | 1011.4 |
| 20260507151532 | 8 | 49 | 0.0 | 0.0 | 0.00 | 0.00 | 0.00 | 42 | 1012.4 |
| 20260507150028 | 7 | 49 | 0.0 | 0.0 | 0.00 | 0.00 | 0.00 | 52 | 1011.7 |
| 20260507144535 | 6 | 49 | 0.0 | 0.0 | 0.00 | 0.00 | 0.00 | 64 | 1012.1 |
| 20260507143023 | 5 | 49 | 0.0 | 0.0 | 0.00 | 0.00 | 0.00 | 67 | 1012.1 |
| 20260507141526 | 4 | 49 | 0.0 | 0.0 | 0.00 | 0.00 | 0.00 | 66 | 1012.4 |
| 20260507140023 | 4 | 49 | 0.0 | 0.0 | 0.00 | 0.00 | 0.00 | 64 | 1011.4 |
| 20260507134521 | 4 | 49 | 0.0 | 0.0 | 0.00 | 0.00 | 0.00 | 62 | 1011.4 |
| 20260507133020 | 4 | 49 | 0.0 | 0.0 | 0.00 | 0.00 | 0.00 | 61 | 1011.3 |
| 20260507131520 | 4 | 49 | 0.0 | 0.0 | 0.00 | 0.00 | 0.00 | 61 | 1011.1 |
| 20260507130027 | 4 | 49 | 0.0 | 0.0 | 0.00 | 0.00 | 0.00 | 60 | 1010.0 |
| 20260507124517 | 4 | 49 | 0.0 | 0.0 | 0.00 | 0.00 | 0.00 | 60 | 1009.4 |
| 20260507123021 | 4 | 49 | 0.0 | 0.0 | 0.00 | 0.00 | 0.00 | 61 | 1009.3 |
| 20260507121514 | 4 | 49 | 0.0 | 0.0 | 0.00 | 0.00 | 0.00 | 59 | 1009.5 |
| 20260507120014 | 4 | 49 | 0.0 | 0.0 | 0.00 | 0.00 | 0.00 | 60 | 1009.4 |
| 20260507114512 | 4 | 49 | 0.0 | 0.0 | 0.00 | 0.00 | 0.00 | 60 | 1009.4 |
| 20260507113011 | 4 | 49 | 0.0 | 0.0 | 0.00 | 0.00 | 0.00 | 60 | 1009.4 |
| 20260507111511 | 5 | 49 | 0.0 | 0.0 | 0.00 | 0.00 | 0.00 | 61 | 1009.5 |
| 20260507110010 | 5 | 49 | 0.0 | 0.0 | 0.00 | 0.00 | 0.00 | 62 | 1009.8 |
| 20260507104508 | 5 | 49 | 0.0 | 0.0 | 0.00 | 0.00 | 0.00 | 63 | 1009.3 |
| 20260507103007 | 5 | 49 | 0.0 | 0.0 | 0.00 | 0.00 | 0.00 | 63 | 1009.5 |
| 20260507101513 | 5 | 49 | 0.0 | 0.0 | 0.00 | 0.00 | 0.00 | 64 | 1009.4 |